Temperature
11 11 11 11 11 11 11 11 10 10 11 11 11 11 11 11 11 11 11 11 11 11 11 11 11 11 11 11 11 11 11 11 11 11 11 11 11 11
11 11 11 11 11 11 11 11 10 10 10 11 11 11 11 11 11 11 10 11 11 11 11 11 11 11 11 11 11 11 11 11 11 11 11 11 11 11
11 11 11 11 11 11 10 10 10 10 10 10 11 10 10 11 10 10 10 10 10 10 10 10 10 10 11 10 10 11 11 11 11 11 11 11 11 11
10 10 10 10 10 10 10 10 10 10 10 10 10 10 10 10 10 10 10 10 10 10 10 10 10 10 10 10 10 10 10 10 10 10 10 10 10 10
10 10 10 10 10 10 10 10 10 10 10 9 10 10 10 10 10 10 10 10 10 9 10 9 9 9 10 10 10 10 10 10 10 10 10 10 10 10
9 9 9 9 9 9 9 9 9 9 9 9 9 9 9 9 9 9 9 9 9 9 9 9 9 9 9 9 10 10 10 10 10 10 10 10 10 10
9 9 9 9 9 9 9 9 9 9 9 9 8 8 9 9 9 9 9 9 9 9 9 9 9 9 9 9 9 9 9 9 9 9 9 9 9 9
9 9 8 8 8 8 8 8 8 8 8 8 8 8 8 8 8 8 8 8 8 8 8 8 8 8 8 9 9 9 9 9 9 9 9 9 9 9
8 8 8 8 8 8 8 8 8 8 8 8 8 8 8 8 8 8 8 8 8 8 8 8 8 8 8 8 8 8 9 9 9 9 9 9 9 9
7 7 7 7 7 7 7 7 7 7 7 7 7 7 8 8 8 8 8 8 8 7 7 7 8 8 8 8 8 8 8 8 8 8 8 8 8 8
7 7 7 7 7 7 7 7 7 7 7 7 7 7 7 7 7 7 7 7 7 7 7 7 7 7 7 7 7 7 7 8 8 8 8 8 8 8
7 7 6 6 6 6 6 6 7 7 7 7 7 7 7 7 7 7 7 7 7 7 7 7 7 7 7 7 7 7 7 7 7 7 8 7 7 7
6 6 6 6 6 6 6 6 6 6 6 6 6 6 6 7 7 7 7 6 6 6 6 6 6 6 6 6 6 7 7 7 7 7 7 7 7 7
6 6 6 6 5 5 5 5 5 5 5 6 6 6 6 6 6 6 6 6 6 6 6 6 6 6 6 6 6 6 6 6 6 6 6 6 7 7
5 5 5 5 5 5 5 5 5 5 5 5 5 5 5 5 5 5 5 5 5 5 5 5 5 5 5 5 5 5 5 5 6 6 6 6 6 6
5 5 4 4 4 4 4 4 4 4 4 5 5 5 5 5 5 5 5 5 5 5 5 5 5 5 5 5 5 5 5 5 5 5 5 5 6 6
4 4 4 4 4 4 4 4 4 4 4 4 4 4 4 4 4 5 4 4 4 4 5 5 4 4 4 4 4 5 5 5 5 5 5 5 5 5
4 4 4 3 3 4 4 3 4 4 4 4 4 4 4 4 4 4 4 4 4 4 4 4 4 4 4 4 4 4 4 4 4 5 5 5 5 5
3 3 3 3 3 3 3 3 3 3 3 3 3 3 3 3 3 3 4 4 4 4 4 4 4 4 4 4 4 4 4 4 4 4 4 4 4 5
3 3 3 3 3 3 3 3 3 3 3 3 3 3 3 3 3 3 3 3 3 3 3 3 4 4 4 3 3 4 4 4 4 4 4 4 4 4
2 2 3 3 3 3 3 3 3 3 3 3 3 3 3 3 3 3 3 3 3 3 3 3 3 3 3 3 3 3 3 3 4 4 4 4 4 4
2 2 2 2 2 2 2 2 2 2 3 3 3 3 2 2 2 2 2 2 3 3 3 3 3 3 3 3 3 3 3 3 3 3 3 3 3 3
1 2 2 2 2 2 2 2 2 2 2 2 2 2 2 2 2 2 2 2 2 2 3 3 3 3 3 3 3 3 3 3 3 3 3 3 3 3
Wind_Speed
2 2 2 2 2 2 2 3 2 2 3 3 2 2 2 2 3 2 3 2 3 2 2 2 2 2 2 2 2 2 2 2 1 1 2 2 2 2
2 2 2 2 2 2 2 2 2 3 3 2 2 2 2 2 3 2 3 3 3 3 3 3 3 3 3 3 3 3 3 3 3 2 2 3 2 3
2 2 3 2 2 2 2 2 2 3 4 3 1 1 1 1 1 1 2 2 3 3 3 3 3 3 4 4 3 3 4 4 4 4 4 4 3 4
3 2 3 2 2 2 2 2 3 3 4 3 2 1 2 2 1 1 1 2 2 3 3 4 4 4 4 4 4 4 4 4 4 4 4 4 5 5
2 3 3 2 3 2 2 2 2 2 3 3 2 1 1 1 1 1 2 2 2 3 3 4 4 4 4 4 4 4 4 4 5 4 4 4 5 6
2 2 2 2 3 3 3 3 2 2 2 2 2 1 1 1 0 0 1 2 2 2 2 3 3 3 3 3 4 4 4 4 4 4 4 4 5 6
2 2 3 3 4 3 2 2 2 2 2 2 2 1 1 1 1 1 2 1 2 1 1 2 1 1 2 3 4 4 4 4 4 4 4 5 5 5
3 3 4 3 4 4 4 3 3 3 3 3 3 3 4 3 2 2 1 1 2 1 1 2 1 1 2 3 3 3 4 4 4 5 5 5 6 6
3 3 3 3 4 3 3 3 3 4 4 4 4 4 4 4 3 3 3 3 3 2 1 2 1 2 2 3 3 3 4 4 5 5 5 5 5 6
4 4 4 4 4 3 2 2 3 3 4 3 4 5 5 4 5 5 5 3 1 1 2 2 2 2 2 3 3 3 3 4 4 4 5 5 5 6
4 4 4 4 5 4 2 2 3 4 4 4 5 5 5 4 3 2 2 2 2 2 2 2 2 2 1 2 3 4 3 3 4 4 4 4 5 6
4 4 5 6 6 5 3 3 4 4 3 3 3 3 2 2 3 3 4 4 2 2 2 3 2 1 1 1 1 2 3 4 4 4 4 3 4 4
3 4 4 7 7 6 4 4 5 4 3 3 2 2 2 1 1 1 2 4 4 3 3 3 2 2 2 1 1 1 1 1 2 3 3 3 3 4
3 4 4 6 6 5 4 4 5 3 2 2 2 2 2 2 2 1 2 2 3 3 4 4 3 3 3 2 2 2 1 1 1 1 1 2 3 4
3 5 5 5 4 3 4 4 3 2 1 2 3 3 3 2 1 1 1 0 0 1 2 3 3 3 3 3 2 2 2 2 1 1 1 1 2 2
3 3 4 3 2 3 3 2 2 2 2 3 3 3 2 1 2 2 2 2 1 2 1 2 3 5 4 4 3 3 2 2 2 2 2 1 1 3
2 1 1 2 2 2 2 2 2 2 2 2 2 2 2 2 2 2 2 1 2 2 2 1 1 2 4 4 4 4 3 3 3 3 3 2 2 3
1 1 2 2 3 3 3 3 3 3 3 2 3 3 3 3 3 2 2 2 3 3 3 2 1 1 1 2 4 4 4 3 3 3 3 3 3 3
1 2 2 3 3 3 3 3 3 4 3 3 3 3 3 3 3 3 3 3 3 3 3 2 2 3 3 3 2 4 4 3 3 3 3 4 4 4
2 3 3 3 3 3 4 3 3 3 3 3 3 3 3 3 3 3 3 3 3 3 3 2 3 4 4 4 2 2 4 4 4 4 3 3 2 2
3 3 3 3 3 4 4 3 3 3 3 3 3 3 3 3 3 3 3 4 4 3 4 4 4 4 2 2 2 2 2 4 4 4 4 3 2 2
3 3 3 3 3 3 3 3 3 3 3 3 3 3 3 3 3 4 4 3 3 3 4 3 2 1 2 3 3 2 2 1 2 2 4 4 4 4
3 3 3 3 3 3 3 3 4 3 3 3 3 3 3 3 3 3 3 3 3 3 3 2 1 1 3 4 3 3 3 2 2 1 0 1 2 4
Wind_Direction
255 245 243 250 234 217 203 193 189 269 292 282 281 286 262 256 266 267 263 276 280 280 284 281 280 295 243 209 188 178 175 174 167 169 174 169 167 171
257 252 257 253 244 225 215 211 202 208 254 271 257 274 268 260 255 248 258 286 283 273 268 268 263 268 236 220 209 203 197 196 194 200 192 191 189 172
282 266 268 257 240 239 224 212 214 205 241 272 257 283 267 271 291 258 264 267 274 280 275 266 261 264 234 222 214 212 211 208 210 216 208 199 197 189
286 285 284 282 263 250 229 227 229 218 217 253 285 274 257 273 292 299 288 273 266 278 276 273 266 267 237 226 223 220 219 215 217 219 217 214 208 202
274 271 279 278 273 261 241 237 240 239 218 216 260 258 264 305 354 335 326 310 292 281 274 274 269 271 252 232 229 224 225 223 221 221 220 216 205 200
278 272 274 265 263 261 246 238 234 235 225 220 243 266 256 289 125 271 312 308 305 314 295 286 277 276 276 240 223 215 215 214 209 207 202 199 201 201
293 288 280 277 275 264 265 247 226 228 226 224 234 251 253 220 237 218 234 291 303 311 325 321 316 311 288 265 233 220 216 216 212 204 202 205 204 205
275 287 292 291 298 292 284 270 238 228 224 221 235 239 251 236 233 214 200 220 278 287 256 292 327 279 283 264 253 228 215 212 214 208 206 207 206 206
263 275 290 296 303 282 295 302 283 269 239 217 224 235 244 233 220 219 212 211 236 246 205 265 276 263 277 267 265 242 222 215 213 205 204 207 210 210
262 256 259 274 276 280 279 293 287 281 267 244 228 237 242 231 213 218 221 219 251 260 182 226 247 251 283 276 264 233 218 217 218 215 210 209 207 206
267 266 262 259 276 285 270 265 281 287 285 272 260 259 262 247 222 184 193 194 243 248 207 205 237 253 271 284 274 247 236 241 239 232 224 210 198 194
276 272 271 269 274 274 245 237 260 273 275 289 301 297 296 254 228 203 199 206 219 239 217 190 207 200 265 280 310 289 264 258 250 239 228 208 188 185
272 271 261 271 273 268 258 235 247 259 251 246 263 281 300 296 279 231 206 204 209 229 216 184 199 198 202 264 285 301 284 299 264 247 225 207 193 180
261 263 266 276 273 271 263 258 260 264 241 235 241 252 253 258 265 266 230 216 212 222 214 192 197 198 194 217 261 273 262 263 244 253 239 218 211 211
269 276 282 290 289 273 255 264 264 243 229 236 244 251 245 243 265 293 298 246 319 271 214 204 194 196 195 210 223 227 236 247 244 226 212 196 196 185
294 291 300 302 293 266 269 267 245 226 229 236 246 252 239 234 244 239 243 258 267 291 306 210 197 188 200 211 213 224 220 216 220 219 207 212 213 204
293 304 301 296 293 286 281 273 264 258 252 241 238 250 244 239 249 239 226 228 236 255 271 293 266 190 190 198 209 225 224 216 211 203 193 213 240 234
297 277 267 262 262 260 254 258 256 251 246 245 241 237 237 234 245 247 229 225 236 241 241 239 230 226 226 236 208 210 214 217 209 196 186 199 232 242
270 268 270 261 259 259 254 248 251 250 245 241 241 236 234 236 234 232 234 230 236 241 237 223 211 193 208 241 244 203 203 207 194 195 200 202 220 230
280 274 275 278 270 262 260 258 259 258 248 242 240 234 227 228 231 236 235 232 232 233 234 224 210 208 209 219 224 231 205 198 196 203 207 212 221 234
286 285 282 284 281 273 266 262 257 255 255 251 245 234 226 223 232 236 234 235 231 222 228 235 234 219 205 186 212 243 228 207 198 199 195 189 191 193
293 293 292 290 292 289 281 270 263 259 255 250 251 244 233 224 229 234 230 229 230 227 231 238 243 196 185 207 218 225 224 206 195 204 206 200 187 195
293 294 295 299 295 294 288 281 270 265 260 254 250 244 238 233 231 230 232 226 224 227 227 225 215 211 209 203 205 205 203 199 179 152 288 301 203 206
Height
1521 1520 1520 1519 1519 1518 1518 1518 1518 1515 1513 1513 1514 1514 1514 1515 1515 1514 1514 1513 1513 1513 1513 1513 1512 1512 1512 1512 1513 1514 1516 1517 1518 1519 1520 1521 1522 1523
1518 1517 1517 1516 1516 1516 1516 1515 1515 1515 1512 1511 1511 1512 1512 1512 1512 1512 1511 1511 1511 1511 1511 1510 1509 1509 1509 1510 1511 1512 1513 1514 1516 1517 1518 1519 1520 1521
1515 1515 1514 1513 1513 1513 1512 1512 1512 1512 1510 1509 1509 1509 1509 1509 1509 1509 1509 1509 1508 1508 1508 1507 1507 1507 1507 1508 1508 1509 1511 1512 1513 1514 1515 1516 1517 1518
1512 1511 1510 1510 1510 1509 1509 1508 1508 1508 1508 1506 1506 1506 1506 1506 1506 1506 1506 1506 1506 1506 1505 1505 1504 1504 1504 1505 1506 1507 1508 1509 1510 1512 1513 1514 1515 1516
1509 1508 1507 1507 1506 1506 1505 1505 1505 1505 1504 1504 1503 1503 1503 1504 1503 1503 1503 1503 1503 1503 1503 1502 1502 1501 1502 1502 1503 1504 1505 1506 1507 1508 1510 1511 1512 1513
1506 1505 1504 1503 1503 1502 1502 1501 1501 1501 1501 1501 1500 1500 1500 1500 1500 1500 1500 1500 1500 1500 1500 1499 1499 1499 1498 1499 1500 1501 1502 1503 1504 1505 1507 1508 1509 1511
1502 1501 1501 1500 1499 1499 1499 1498 1498 1497 1497 1497 1497 1497 1496 1496 1497 1497 1497 1497 1497 1497 1497 1497 1496 1495 1495 1496 1497 1497 1498 1500 1501 1502 1503 1504 1506 1507
1498 1497 1497 1496 1496 1496 1495 1495 1495 1494 1494 1494 1493 1493 1493 1494 1494 1494 1494 1494 1493 1495 1494 1494 1493 1493 1493 1493 1493 1494 1495 1496 1497 1499 1500 1501 1502 1504
1494 1493 1493 1492 1492 1491 1491 1491 1491 1491 1491 1491 1490 1490 1490 1490 1490 1490 1490 1490 1490 1491 1491 1490 1490 1490 1490 1490 1490 1491 1492 1493 1494 1495 1496 1497 1499 1500
1490 1489 1488 1488 1487 1487 1487 1486 1486 1486 1487 1486 1486 1486 1486 1487 1487 1487 1487 1487 1487 1487 1488 1487 1487 1487 1487 1487 1487 1488 1488 1489 1490 1491 1492 1493 1495 1496
1486 1485 1484 1484 1483 1483 1483 1482 1481 1481 1482 1482 1482 1482 1482 1483 1483 1483 1483 1483 1482 1483 1484 1484 1483 1483 1483 1483 1483 1484 1484 1485 1486 1487 1488 1489 1491 1492
1481 1480 1480 1479 1479 1479 1478 1478 1477 1477 1477 1477 1478 1478 1478 1479 1479 1479 1479 1479 1478 1478 1479 1480 1480 1480 1480 1480 1480 1481 1481 1481 1483 1483 1484 1485 1487 1489
1476 1475 1475 1475 1474 1474 1474 1473 1473 1473 1473 1473 1472 1473 1473 1474 1474 1474 1475 1475 1474 1474 1475 1476 1476 1476 1477 1477 1477 1477 1477 1478 1479 1480 1481 1482 1484 1485
1472 1471 1470 1470 1470 1470 1469 1469 1469 1469 1469 1468 1468 1468 1468 1469 1469 1469 1470 1470 1470 1471 1471 1472 1472 1472 1473 1473 1473 1474 1474 1475 1476 1476 1478 1479 1481 1482
1468 1467 1467 1466 1465 1465 1465 1465 1465 1465 1464 1464 1463 1464 1464 1464 1465 1465 1465 1465 1466 1466 1467 1467 1468 1468 1469 1469 1469 1470 1471 1471 1472 1473 1475 1476 1477 1478
1464 1464 1463 1462 1461 1461 1461 1461 1461 1460 1460 1460 1459 1460 1460 1460 1460 1461 1461 1461 1461 1461 1462 1463 1463 1464 1464 1465 1466 1466 1467 1467 1469 1470 1471 1473 1474 1475
1461 1460 1459 1458 1457 1457 1457 1456 1456 1456 1456 1456 1456 1456 1456 1456 1456 1456 1457 1457 1457 1457 1457 1458 1458 1459 1460 1460 1461 1462 1463 1464 1465 1466 1468 1469 1470 1472
1457 1456 1455 1454 1453 1453 1452 1452 1452 1452 1452 1452 1452 1452 1451 1451 1451 1452 1453 1453 1453 1453 1453 1453 1454 1454 1455 1455 1457 1457 1459 1460 1461 1463 1464 1465 1466 1468
1454 1452 1451 1451 1450 1449 1449 1448 1448 1448 1448 1448 1447 1447 1448 1447 1447 1448 1448 1448 1449 1449 1449 1449 1450 1450 1450 1451 1452 1454 1455 1456 1457 1458 1460 1461 1462 1464
1450 1449 1448 1448 1447 1446 1446 1445 1444 1444 1444 1444 1443 1443 1443 1443 1443 1443 1444 1444 1444 1445 1445 1445 1446 1446 1447 1448 1448 1449 1451 1452 1453 1454 1455 1457 1459 1461
1447 1446 1445 1444 1444 1443 1442 1441 1441 1440 1440 1440 1439 1439 1439 1439 1439 1439 1440 1440 1440 1441 1441 1442 1442 1444 1444 1445 1445 1445 1447 1448 1449 1450 1452 1453 1454 1456
1444 1443 1442 1441 1440 1439 1438 1438 1437 1436 1436 1435 1435 1435 1435 1435 1435 1436 1436 1436 1437 1437 1438 1439 1439 1440 1441 1441 1441 1442 1443 1445 1446 1447 1449 1450 1450 1451
1441 1440 1439 1438 1437 1436 1435 1434 1433 1432 1432 1431 1431 1431 1431 1431 1431 1432 1432 1432 1433 1434 1434 1435 1436 1436 1437 1438 1438 1439 1440 1441 1442 1444 1446 1447 1448 1450